CW9803 Weather Reports


time (UTC)temp
F
wind
direction
speed
knots
gust
knots
rain 1hr
in
rain 24hr
in
rain mn
in
humidity
%
barometer
mb
20260903133837 49 112 0.0 0.0 0.00 0.22 0.22 99 1009.1
20260903133334 49 112 0.0 0.0 0.00 0.22 0.22 99 1009.3
20260903132828 49 112 0.0 0.0 0.00 0.22 0.22 99 1009.4
20260903132324 49 112 0.0 0.0 0.00 0.22 0.22 99 1009.3
20260903131819 49 112 0.0 0.0 0.00 0.22 0.22 99 1009.1
20260903131318 49 112 0.0 0.0 0.00 0.22 0.22 99 1009.1
20260903130812 49 112 0.0 0.0 0.00 0.22 0.22 99 1009.0
20260903130313 49 112 0.0 0.0 0.00 0.22 0.22 99 1009.0
20260903125811 49 111 0.0 0.0 0.00 0.22 0.22 99 1008.8
20260903125307 49 111 0.0 0.0 0.00 0.22 0.22 99 1008.5
20260903124806 50 111 0.0 0.0 0.00 0.22 0.22 99 1008.7
20260903124301 50 111 0.0 0.0 0.00 0.22 0.22 99 1008.8
20260903123800 50 113 0.0 0.0 0.00 0.22 0.22 99 1008.7
20260903123259 50 122 0.0 0.0 0.00 0.22 0.22 99 1008.6
20260903122758 50 151 0.0 0.0 0.00 0.22 0.22 99 1008.6
20260903122253 50 151 0.0 0.0 0.00 0.22 0.22 99 1008.6
20260903121751 50 151 0.0 0.0 0.00 0.22 0.22 99 1008.5
20260903121247 50 152 0.0 0.0 0.00 0.22 0.22 99 1008.6
20260903120742 50 152 0.0 0.0 0.00 0.22 0.22 99 1008.6
20260903120236 50 152 0.0 0.0 0.00 0.22 0.22 99 1008.6
20260903115735 50 152 0.0 0.0 0.07 0.22 0.22 99 1008.6
20260903115230 50 152 0.0 0.0 0.07 0.22 0.22 99 1008.6
20260903114724 50 152 0.0 0.0 0.00 0.21 0.21 99 1008.7
20260903114220 50 152 0.0 0.0 0.05 0.21 0.21 99 1008.6
20260903113715 50 153 0.0 0.0 0.05 0.21 0.21 99 1009.0
20260903113211 50 153 0.0 0.0 0.07 0.20 0.20 99 1008.5
20260903112707 50 154 0.0 0.0 0.07 0.20 0.20 99 1008.6
20260903112203 50 150 0.0 0.0 0.05 0.19 0.19 99 1008.5
20260903111701 50 149 0.0 0.0 0.12 0.19 0.19 99 1008.5
20260903111156 50 142 0.0 0.0 0.12 0.18 0.18 99 1008.5
20260903110653 50 141 0.0 0.0 0.17 0.17 0.17 99 1008.5
20260903110148 50 152 0.0 0.0 0.12 0.16 0.16 99 1008.4
20260903105642 50 153 0.0 0.0 0.07 0.14 0.14 99 1008.4
20260903105137 50 149 0.9 0.9 0.07 0.14 0.14 99 1008.6
20260903104637 50 182 1.7 2.6 0.05 0.13 0.13 99 1008.2
20260903104133 50 156 0.9 0.9 0.05 0.13 0.13 99 1008.3
20260903103628 50 147 0.9 0.9 0.07 0.12 0.12 99 1008.0
20260903103124 50 155 0.9 0.9 0.07 0.12 0.12 99 1008.0
20260903102620 50 150 0.9 1.7 0.00 0.11 0.11 99 1008.0
20260903102118 50 161 1.7 1.7 0.07 0.11 0.11 99 1008.3
20260903101613 50 147 0.0 0.0 0.07 0.11 0.11 99 1008.1
20260903101108 50 151 0.9 0.9 0.00 0.10 0.10 99 1008.1
20260903100603 51 156 0.0 0.9 0.00 0.10 0.10 99 1007.8
20260903095600 51 161 0.0 0.0 0.05 0.10 0.10 99 1007.9
20260903095055 50 149 0.0 0.0 0.05 0.10 0.10 99 1007.9
20260903094555 50 150 0.0 0.0 0.00 0.09 0.09 99 1008.2
20260903094050 50 154 0.0 0.0 0.07 0.09 0.09 99 1007.9
20260903093550 50 152 0.0 0.0 0.19 0.09 0.09 99 1007.8
20260903093046 52 152 0.9 0.9 0.12 0.08 0.08 99 1007.7
20260903092545 52 148 0.0 0.0 0.12 0.07 0.07 99 1007.9
20260903092040 52 145 0.9 0.9 0.12 0.06 0.06 99 1007.7
20260903091538 52 138 0.0 0.0 0.07 0.05 0.05 99 1007.7
20260903091033 52 152 0.0 0.0 0.00 0.04 0.04 99 1007.8
20260903090529 52 154 0.0 0.0 0.00 0.04 0.04 99 1007.8
20260903090028 52 120 0.0 0.0 0.05 0.04 0.04 99 1007.5
20260903085526 52 123 0.0 0.0 0.05 0.04 0.04 99 1007.8
20260903085022 52 123 0.0 0.0 0.07 0.03 0.03 99 1007.5
20260903084520 52 124 0.0 0.0 0.07 0.03 0.03 99 1007.8
20260903084015 52 124 0.0 0.0 0.00 0.02 0.02 99 1007.5
20260903083511 52 117 0.0 0.0 0.00 0.02 0.02 99 1007.4
20260903083010 52 118 0.0 0.0 0.00 0.02 0.02 99 1007.7
20260903082505 52 118 0.0 0.0 0.00 0.02 0.02 99 1007.8
20260903082000 52 117 0.0 0.0 0.00 0.02 0.02 99 1007.4
20260903081455 52 133 0.0 0.0 0.00 0.02 0.02 99 1007.7
20260903080952 52 140 0.0 0.0 0.00 0.02 0.02 98 1007.5
20260903080447 52 150 0.0 0.0 0.00 0.02 0.02 98 1007.5
20260903075943 52 128 0.0 0.0 0.00 0.02 0.02 98 1007.4
20260903075438 52 128 0.0 0.0 0.00 0.02 0.02 98 1007.4
20260903074933 52 128 0.0 0.0 0.05 0.02 0.02 98 1007.8
20260903074432 52 128 0.0 0.0 0.05 0.02 0.02 97 1007.4
20260903073928 52 128 0.0 0.0 0.00 0.01 0.01 97 1007.8
20260903073423 52 128 0.0 0.0 0.00 0.01 0.01 97 1007.8
20260903072919 52 118 0.0 0.0 0.07 0.01 0.01 97 1007.7
20260903072414 52 128 0.0 0.0 0.07 0.01 0.01 97 1007.5
20260903071911 52 150 0.0 0.0 0.00 0.00 0.00 97 1007.9
20260903071407 52 154 0.0 0.0 0.00 0.00 0.00 97 1007.7
20260903070903 52 126 0.0 0.0 0.00 0.00 0.00 97 1007.5
20260903070357 52 107 0.0 0.0 0.05 0.00 0.00 97 1007.7
20260903065851 52 137 0.0 0.0 0.05 0.15 0.15 97 1007.7
20260903065351 52 116 0.0 0.0 0.00 0.14 0.14 97 1007.9
20260903064845 52 126 0.0 0.0 0.07 0.14 0.14 96 1007.8
20260903064340 52 151 0.0 0.0 0.07 0.14 0.14 96 1008.1
20260903063836 53 151 0.0 0.0 0.07 0.13 0.13 96 1007.9
20260903063331 52 151 0.0 0.0 0.07 0.13 0.13 96 1008.0
20260903062827 52 151 0.0 0.0 0.05 0.12 0.12 96 1008.1
20260903062326 53 152 0.0 0.0 0.05 0.12 0.12 96 1008.0
20260903061823 53 147 0.0 0.0 0.12 0.12 0.12 96 1008.0
20260903061321 53 146 0.0 0.0 0.07 0.11 0.11 95 1008.1
20260903060818 53 173 0.0 0.0 0.05 0.10 0.10 95 1008.4
20260903060311 53 159 0.0 0.0 0.12 0.10 0.10 95 1008.2
20260903055809 53 147 0.0 0.0 0.12 0.09 0.09 94 1008.1
20260903055308 53 143 0.0 0.0 0.05 0.08 0.08 94 1008.2
20260903054802 53 134 0.0 0.0 0.07 0.07 0.07 94 1008.3
20260903054257 53 145 0.0 0.0 0.07 0.07 0.07 94 1008.5
20260903053754 53 122 0.0 0.0 0.00 0.06 0.06 94 1008.2
20260903053254 53 121 0.0 0.0 0.05 0.06 0.06 94 1008.3
20260903052744 53 124 0.0 0.0 0.05 0.06 0.06 94 1008.2
20260903052239 53 124 0.0 0.0 0.05 0.06 0.06 94 1008.4
20260903051734 53 125 0.0 0.0 0.00 0.05 0.05 94 1008.4
20260903051230 54 125 0.0 0.0 0.00 0.05 0.05 93 1008.3
20260903050726 54 124 0.0 0.0 0.00 0.05 0.05 93 1008.3
20260903050224 53 124 0.0 0.0 0.07 0.05 0.05 93 1008.1
20260903045720 53 124 0.0 0.0 0.07 0.05 0.05 93 1008.3
20260903045216 54 124 0.0 0.0 0.00 0.04 0.04 93 1008.3
20260903044712 54 140 0.0 0.0 0.00 0.04 0.04 93 1008.3
20260903044207 54 139 0.0 0.0 0.00 0.04 0.04 92 1008.4
20260903043704 54 139 0.0 0.0 0.00 0.04 0.04 92 1008.1
20260903043203 54 150 0.0 0.0 0.00 0.04 0.04 92 1008.3
20260903042702 54 147 0.0 0.0 0.00 0.04 0.04 91 1008.2
20260903042157 54 148 0.9 0.9 0.00 0.04 0.04 90 1008.2
20260903041654 54 160 0.9 0.9 0.05 0.04 0.04 87 1008.3
20260903041149 54 157 1.7 1.7 0.05 0.04 0.04 87 1007.9
20260903040649 55 146 0.0 0.0 0.00 0.03 0.03 85 1008.0
20260903040144 55 159 0.0 0.0 0.00 0.03 0.03 85 1008.1
20260903035639 54 142 0.0 0.0 0.00 0.03 0.03 83 1008.0
20260903035130 55 174 1.7 1.7 0.00 0.03 0.03 83 1007.9
20260903034629 55 167 1.7 1.7 0.00 0.03 0.03 83 1007.9
20260903034119 56 138 0.0 0.9 0.00 0.03 0.03 80 1007.9
20260903033615 56 156 0.0 0.0 0.00 0.03 0.03 78 1007.9
20260903033109 57 213 3.5 5.2 0.07 0.03 0.03 74 1007.9
20260903032604 57 200 1.7 1.7 0.07 0.03 0.03 76 1008.0
20260903032059 57 168 2.6 3.5 0.00 0.02 0.02 74 1007.9
20260903031554 57 151 3.5 5.2 0.00 0.02 0.02 76 1007.9
20260903031049 56 146 0.9 1.7 0.00 0.02 0.02 85 1008.0
20260903030544 56 138 0.0 0.0 0.00 0.02 0.02 87 1007.8
20260903030041 57 148 0.0 0.0 0.00 0.02 0.02 88 1007.4
20260903025536 56 155 0.0 0.9 0.00 0.02 0.02 87 1007.8
20260903025032 56 129 0.0 0.0 0.00 0.02 0.02 87 1007.9
20260903024531 56 144 0.0 0.9 0.00 0.02 0.02 88 1007.7
20260903024026 56 139 0.9 0.9 0.00 0.02 0.02 87 1007.7
20260903023521 56 134 0.0 0.0 0.00 0.02 0.02 88 1007.8
20260903023017 56 143 0.0 0.0 0.00 0.02 0.02 88 1007.8
20260903022516 56 120 0.0 0.0 0.00 0.02 0.02 87 1007.4
20260903022014 57 123 0.0 0.0 0.00 0.02 0.02 86 1007.2
20260903021509 57 127 0.9 0.9 0.00 0.02 0.02 85 1007.2
20260903021004 57 77 0.9 1.7 0.07 0.02 0.02 82 1007.5
20260903020459 58 170 0.9 0.9 0.12 0.02 0.02 82 1007.5
20260903015954 59 87 0.9 1.7 0.05 0.01 0.01 81 1007.4
20260903015450 59 172 1.7 2.6 0.00 0.00 0.00 76 1007.3
20260903014944 60 154 0.9 0.9 0.00 0.00 0.00 72 1007.2
20260903014443 61 130 0.0 0.0 0.00 0.00 0.00 69 1007.1
20260903013938 61 146 0.0 0.0 0.00 0.00 0.00 66 1007.2
20260903013433 62 148 0.0 0.0 0.00 0.00 0.00 61 1007.2
20260903012932 62 210 0.0 0.9 0.00 0.00 0.00 59 1007.0
20260903012432 64 167 0.9 1.7 0.00 0.00 0.00 57 1006.9
20260903011930 64 163 0.9 1.7 0.00 0.00 0.00 53 1006.9
20260903011426 65 252 3.5 5.2 0.00 0.00 0.00 51 1006.8
20260903010920 65 265 5.2 6.1 0.00 0.00 0.00 48 1006.4
20260903010416 65 205 2.6 2.6 0.00 0.00 0.00 48 1006.7
20260903005913 66 263 4.3 5.2 0.00 0.00 0.00 47 1006.4
20260903005409 66 280 5.2 6.1 0.00 0.00 0.00 47 1006.1
20260903004906 66 264 6.1 7.8 0.00 0.00 0.00 47 1006.2
20260903004401 66 249 4.3 6.1 0.00 0.00 0.00 46 1006.2
20260903003856 67 275 3.5 5.2 0.00 0.00 0.00 45 1006.4
20260903003350 67 306 3.5 3.5 0.00 0.00 0.00 44 1005.9
20260903002850 67 258 5.2 6.1 0.00 0.00 0.00 43 1006.0
20260903002345 68 272 5.2 6.1 0.00 0.00 0.00 43 1005.9
20260903001840 68 240 5.2 7.0 0.00 0.00 0.00 42 1006.0
20260903001335 68 282 3.5 5.2 0.00 0.00 0.00 41 1005.7
20260903000835 68 180 3.5 3.5 0.00 0.00 0.00 41 1005.5
20260903000332 68 287 1.7 1.7 0.00 0.00 0.00 42 1005.7
20260902235828 68 228 3.5 5.2 0.00 0.00 0.00 42 1005.7
20260902235323 69 205 3.5 3.5 0.00 0.00 0.00 42 1005.6
20260902234818 69 205 1.7 2.6 0.00 0.00 0.00 42 1005.2
20260902234317 68 192 1.7 2.6 0.00 0.00 0.00 42 1005.2
20260902233816 69 224 4.3 5.2 0.00 0.00 0.00 40 1005.3
20260902233311 69 288 2.6 3.5 0.00 0.00 0.00 41 1005.2
20260902232809 69 251 7.8 8.7 0.00 0.00 0.00 39 1005.2
20260902232310 68 277 6.1 7.8 0.00 0.00 0.00 41 1005.2
20260902231809 69 279 7.8 9.6 0.00 0.00 0.00 41 1005.5
20260902231304 69 262 7.8 8.7 0.00 0.00 0.00 40 1005.6
20260902230759 70 238 4.3 5.2 0.00 0.00 0.00 40 1005.3
20260902230258 70 236 4.3 6.1 0.00 0.00 0.00 39 1005.8
20260902225753 70 271 4.3 6.1 0.00 0.00 0.00 39 1005.1
20260902225248 70 273 1.7 2.6 0.00 0.00 0.00 38 1005.4
20260902224746 70 319 5.2 7.0 0.00 0.00 0.00 39 1005.2
20260902224242 70 212 6.1 7.8 0.00 0.00 0.00 39 1004.9
20260902223738 70 290 4.3 5.2 0.00 0.00 0.00 40 1004.9
20260902223237 71 236 7.0 8.7 0.00 0.00 0.00 37 1004.7
20260902222736 71 163 1.7 2.6 0.00 0.00 0.00 39 1004.8
20260902222231 71 152 0.0 0.0 0.00 0.00 0.00 39 1004.7
20260902221725 71 176 1.7 1.7 0.00 0.00 0.00 38 1004.6
20260902221219 71 152 0.9 1.7 0.00 0.00 0.00 38 1004.6
20260902220714 71 141 1.7 2.6 0.00 0.00 0.00 38 1004.7
20260902220214 71 174 4.3 7.0 0.00 0.00 0.00 38 1004.8
20260902215710 72 165 0.9 0.9 0.00 0.00 0.00 37 1004.8
20260902215205 74 139 0.0 0.9 0.00 0.00 0.00 37 1004.7
20260902214701 73 175 0.9 0.9 0.00 0.00 0.00 37 1005.2
20260902214159 72 175 2.6 2.6 0.00 0.00 0.00 39 1005.4
20260902213655 71 204 3.5 5.2 0.00 0.00 0.00 39 1005.3
20260902213149 71 147 2.6 2.6 0.00 0.00 0.00 39 1005.4
20260902212644 71 138 0.9 1.7 0.00 0.00 0.00 40 1005.6
20260902212141 71 173 0.9 0.9 0.00 0.00 0.00 39 1005.5
20260902211636 71 222 3.5 5.2 0.00 0.00 0.00 39 1005.4
20260902211131 71 148 0.9 1.7 0.00 0.00 0.00 39 1005.3
20260902210631 71 173 1.7 1.7 0.00 0.00 0.00 40 1005.5
20260902210126 71 162 0.9 0.9 0.00 0.00 0.00 39 1005.4
20260902205624 69 179 1.7 2.6 0.00 0.00 0.00 41 1005.3
20260902205120 69 168 0.9 0.9 0.00 0.00 0.00 42 1005.4
20260902204615 69 144 0.9 0.9 0.00 0.00 0.00 43 1005.6
20260902204109 69 152 0.0 0.9 0.00 0.00 0.00 42 1005.6
20260902203605 69 141 0.0 0.0 0.00 0.00 0.00 42 1005.4
20260902203104 69 184 0.9 1.7 0.00 0.00 0.00 42 1005.4
20260902202600 69 166 1.7 1.7 0.00 0.00 0.00 42 1005.6
20260902202056 70 217 0.9 1.7 0.00 0.00 0.00 41 1005.6
20260902201551 70 183 3.5 3.5 0.00 0.00 0.00 41 1005.7
20260902201045 71 150 5.2 7.0 0.00 0.00 0.00 40 1005.7
20260902200540 72 142 0.0 0.9 0.00 0.00 0.00 39 1005.7
20260902200037 71 181 3.5 3.5 0.00 0.00 0.00 39 1005.5
20260902195532 72 144 1.7 1.7 0.00 0.00 0.00 40 1005.7
20260902195030 72 139 4.3 7.8 0.00 0.00 0.00 39 1005.9
20260902194524 71 147 0.9 1.7 0.00 0.00 0.00 40 1005.9
20260902194020 72 137 3.5 3.5 0.00 0.00 0.00 39 1006.2
20260902193515 71 129 4.3 6.1 0.00 0.00 0.00 40 1006.0
20260902193015 74 180 10.4 13.9 0.00 0.00 0.00 37 1006.2
20260902192514 73 129 3.5 3.5 0.00 0.00 0.00 38 1005.8
20260902192013 73 141 1.7 1.7 0.00 0.00 0.00 39 1006.1
20260902191509 72 130 0.9 0.9 0.00 0.00 0.00 40 1006.1
20260902191003 73 190 4.3 6.1 0.00 0.00 0.00 40 1006.2
20260902190458 71 185 4.3 6.1 0.00 0.00 0.00 41 1006.4
20260902185954 69 133 1.7 1.7 0.00 0.00 0.00 44 1006.2
20260902185449 70 177 4.3 6.1 0.00 0.00 0.00 43 1006.1
20260902184944 70 139 2.6 2.6 0.00 0.00 0.00 42 1006.4
20260902184439 72 183 2.6 2.6 0.00 0.00 0.00 43 1006.6
20260902183935 70 148 0.9 1.7 0.00 0.00 0.00 43 1006.7
20260902183431 70 137 2.6 2.6 0.00 0.00 0.00 43 1006.5
20260902182927 70 177 3.5 5.2 0.00 0.00 0.00 44 1006.5
20260902182423 70 55 0.9 2.6 0.00 0.00 0.00 43 1006.5
20260902181919 71 146 1.7 2.6 0.00 0.00 0.00 43 1006.8
20260902181414 70 145 1.7 3.5 0.00 0.00 0.00 44 1006.8
20260902180909 69 135 0.0 0.0 0.00 0.00 0.00 43 1006.9
20260902180405 69 119 0.9 3.5 0.00 0.00 0.00 44 1007.0
20260902175900 68 131 0.9 1.7 0.00 0.00 0.00 45 1007.2
20260902175355 68 172 2.6 2.6 0.00 0.00 0.00 45 1006.9
20260902174850 68 96 1.7 1.7 0.00 0.00 0.00 46 1007.2
20260902174347 67 134 0.0 0.9 0.00 0.00 0.00 47 1007.2
20260902173837 67 142 1.7 2.6 0.00 0.00 0.00 47 1007.3
20260902173336 67 145 1.7 1.7 0.00 0.00 0.00 47 1007.4
20260902172831 67 103 0.9 0.9 0.00 0.00 0.00 47 1007.2
20260902172331 66 135 0.9 0.9 0.00 0.00 0.00 48 1007.4
20260902171825 67 123 0.9 1.7 0.00 0.00 0.00 48 1007.5
20260902171320 65 131 1.7 2.6 0.00 0.00 0.00 48 1007.4
20260902170812 66 132 0.9 0.9 0.00 0.00 0.00 48 1007.5
20260902170307 65 123 0.9 1.7 0.00 0.00 0.00 50 1007.5
20260902165802 65 92 1.7 1.7 0.00 0.00 0.00 51 1007.5
20260902165256 64 144 0.9 0.9 0.00 0.00 0.00 51 1007.5
20260902164750 64 121 0.9 0.9 0.00 0.00 0.00 52 1007.7
20260902164244 64 89 2.6 3.5 0.00 0.00 0.00 52 1007.5
20260902163739 64 98 3.5 3.5 0.00 0.00 0.00 52 1007.7
20260902163233 63 130 1.7 1.7 0.00 0.00 0.00 53 1007.7
20260902162732 64 129 0.9 1.7 0.00 0.00 0.00 53 1007.5
20260902162227 64 83 0.9 1.7 0.00 0.00 0.00 50 1007.5
20260902161722 64 137 0.9 1.7 0.00 0.00 0.00 51 1007.4
20260902161218 64 141 0.9 1.7 0.00 0.00 0.00 50 1007.3
20260902160714 62 126 0.0 0.0 0.00 0.00 0.00 53 1007.4
20260902160208 61 134 0.0 0.0 0.00 0.00 0.00 55 1007.3
20260902155707 61 126 0.9 1.7 0.00 0.00 0.00 55 1007.2
20260902155205 61 103 0.9 0.9 0.00 0.00 0.00 55 1007.1
20260902154701 60 84 1.7 2.6 0.00 0.00 0.00 57 1007.4
20260902154200 60 95 1.7 1.7 0.00 0.00 0.00 58 1007.3
20260902153655 60 77 1.7 1.7 0.00 0.00 0.00 58 1007.1
20260902153150 59 129 0.0 0.9 0.00 0.00 0.00 58 1007.5
20260902152646 59 309 0.9 1.7 0.00 0.00 0.00 59 1007.3
20260902152141 59 356 1.7 1.7 0.00 0.00 0.00 59 1007.3
20260902151636 59 142 0.9 0.9 0.00 0.00 0.00 58 1007.4
20260902151131 59 162 0.9 0.9 0.00 0.00 0.00 59 1007.3
20260902150626 59 129 1.7 2.6 0.00 0.00 0.00 59 1007.4
20260902150121 58 318 2.6 2.6 0.00 0.00 0.00 60 1007.7
20260902145616 57 95 1.7 1.7 0.00 0.00 0.00 62 1007.9
20260902145115 56 187 0.0 0.0 0.00 0.00 0.00 67 1007.8
20260902144613 57 115 0.9 0.9 0.00 0.00 0.00 64 1007.2
20260902144112 55 136 0.0 0.0 0.00 0.00 0.00 66 1007.3
20260902143607 55 144 0.0 0.0 0.00 0.00 0.00 68 1007.3
20260902143103 54 353 0.9 1.7 0.00 0.00 0.00 70 1007.1
20260902142558 54 151 0.9 1.7 0.00 0.00 0.00 72 1007.0
20260902142054 54 137 0.0 0.0 0.00 0.00 0.00 72 1007.3
20260902141548 54 115 0.9 0.9 0.00 0.00 0.00 72 1007.3
20260902141043 54 150 0.9 0.9 0.00 0.00 0.00 71 1007.2
20260902140538 54 170 3.5 3.5 0.00 0.00 0.00 71 1007.4
20260902140034 54 153 0.9 0.9 0.00 0.00 0.00 72 1007.3
20260902135533 54 141 0.9 0.9 0.00 0.00 0.00 72 1007.1
20260902135028 54 125 0.0 0.0 0.00 0.00 0.00 71 1007.0
20260902134523 54 144 0.0 0.0 0.00 0.00 0.00 70 1007.3